Regional Weather Roundup
Issued by NWS Upton, NY

Current Version | Previous Version | Graphics & Text | Print | Product List | Glossary Off
Versions: 1 2 3 4 5 6 7 8 9 10 11 12 13 14 15 16 17 18 19 20 21 22 23 24 25 26 27 28 29 30 31 32 33 34 35 36 37 38 39 40 41 42 43 44 45 46 47 48 49 50

000
ASUS41 KOKX 051508
RWROKX

REGIONAL WEATHER ROUNDUP
NATIONAL WEATHER SERVICE NEW YORK NY
1100 AM EDT TUE MAY 05 2015

NOTE: "FAIR" INDICATES FEW OR NO CLOUDS BELOW 12,000 FEET WITH NO
SIGNIFICANT WEATHER AND/OR OBSTRUCTIONS TO VISIBILITY.

NYZ071-072-176-178-NJZ106-104-051600-
NEW YORK CITY METRO AREA


CITY           SKY/WX    TMP DP  RH WIND       PRES   REMARKS
CENTRAL PARK   PTSUNNY   77  53  43 VRB3      30.24R
LAGUARDIA APRT PTSUNNY   73  52  47 N6        30.21R
KENNEDY INTL   PTSUNNY   79  52  38 N9        30.22R
NEWARK/LIBERTY PTSUNNY   80  55  42 W10       30.22R
BRNX BOT. GARD   N/A     73  52  46 W7        30.24R
TETERBORO      PTSUNNY   78  54  43 NW7       30.21R
$$

NYZ177-179-078>081-051600-
LONG ISLAND NEW YORK

CITY           SKY/WX    TMP DP  RH WIND       PRES   REMARKS
FARMINGDALE    MOSUNNY   77  52  41 NE10      30.21R
ISLIP          PTSUNNY   76  52  43 NE10      30.20R
SHIRLEY        MOSUNNY   75  51  43 N7        30.22R
WESTHAMPTON    PTSUNNY   71  53  52 VRB3      30.23R
MONTAUK POINT    N/A     67  51  56 VRB5      30.22R
$$

NYZ052-065-067-051600-
HUDSON VALLEY

CITY           SKY/WX    TMP DP  RH WIND       PRES   REMARKS
WHITE PLAINS   MOSUNNY   74  54  49 VRB5      30.22R
NEWBURGH       PTSUNNY   72  57  60 VRB6      30.23S
MONTGOMERY     PTSUNNY   75  57  53 VRB5      30.22R
POUGHKEEPSIE   SUNNY     75  52  44 NW6       30.21F
ALBANY         PTSUNNY   71  52  50 NW5       30.24R
$$

NJZ001-105-106-008-010-013-015-019>022-104-051600-
NEW JERSEY

CITY           SKY/WX    TMP DP  RH WIND       PRES   REMARKS
NEWARK/LIBERTY PTSUNNY   80  55  42 W10       30.22R
TETERBORO      PTSUNNY   78  54  43 NW7       30.21R
CALDWELL       PTSUNNY   75  56  51 MISG      30.23R
MORRISTOWN     CLOUDY    75  55  50 N6        30.23R
SOMERVILLE     PTSUNNY   78  55  44 CALM      30.21R
SUSSEX         MOSUNNY   74  54  49 VRB5      30.24S
ANDOVER          N/A     73  56  54 VRB5      30.24R
TRENTON        CLOUDY    75  54  47 VRB3      30.23S
MILLVILLE      MOSUNNY   77  56  48 VRB3      30.24S
ATLANTIC CITY  SUNNY     80  54  40 W7        30.23S
WRIGHTSTOWN    PTSUNNY   74  56  54 NW5       30.21R
TOMS RIVER     MOSUNNY   79  54  41 W8        30.23S
BELMAR         PTSUNNY   75  54  46 NW5       30.23R
$$

PAZ047>061-062-071-051600-
EASTERN PENNSYLVANIA

CITY           SKY/WX    TMP DP  RH WIND       PRES   REMARKS
PHILADELPHIA   PTSUNNY   74  55  51 W7        30.25R
ALLENTOWN      MOSUNNY   77  57  50 W8        30.24S
SCRANTON       PTSUNNY   73  54  51 N8        30.26S
$$

CTZ002-004>006-009-010-012-RIZ004-006-007-MAZ004-011-015-051600-
SOUTHERN NEW ENGLAND
 IN CT

CITY           SKY/WX    TMP DP  RH WIND       PRES   REMARKS
BRADLEY INTL   CLOUDY    72  52  49 N7        30.21R
HARTFORD       CLOUDY    72  53  51 N8        30.21R
DANBURY        MOSUNNY   74  53  48 VRB6      30.23S
WTRBRY/OXFORD  MOSUNNY   72  54  53 N8        30.23F
BRIDGEPORT     PTSUNNY   69  51  52 SW8       30.21R
MERIDEN        PTSUNNY   77  53  43 N8        30.21S
NEW HAVEN      PTSUNNY   67  52  58 S5        30.21R
CHESTER        FAIR      72  52  49 N6        30.22R
GROTON         CLOUDY    62  49  62 SW8       30.20R
WILLIMANTIC    PTSUNNY   72  52  49 NW9       30.22R

 IN RI

CITY           SKY/WX    TMP DP  RH WIND       PRES   REMARKS
PROVIDENCE     PTSUNNY   72  53  51 N10       30.21R
BLOCK ISLAND   MOSUNNY   63  48  59 SW8       30.23R
WESTERLY       MOSUNNY   68  50  52 SW6       30.21R

 IN MA

CITY           SKY/WX    TMP DP  RH WIND       PRES   REMARKS
BOSTON         LGT RAIN  62  57  83 S5        30.20R
WORCESTER      CLOUDY    62  56  80 W6        30.23R
WESTFIELD      PTSUNNY   71  53  52 S5        30.21S
PROVINCETOWN   CLOUDY    57  48  72 NW7       30.21R
NANTUCKET      MOSUNNY   61  49  64 W13       30.21S
$$

ANZ330-335-338-340-345-350-353-355-051600-
COASTAL MARINE OBSERVATIONS


STATION/POSITION TIME  SKY/WX   TEMP    WIND        PRES    VSBY  WAVE
                                AIR SEA DIR/SP/G                  HT/PER
                 (UTC)          (F)     (DEG/KT/KT) (MB)    (MI)  (FT/S)
NY HARB ENTRANCE 1450            54 52  220/  6/  6 1023.1          3/ 5
4S FIRE IS       1403               49                N/A           4/ 6
20S FIRE ISLAND  1450            51 48  230/  8/ 10 1023.4          4/ 5
GREAT SOUTH BAY  1430            60 60  250/  8/ 10   N/A
23SW MTP         1450            49 47  230/  8/ 10 1023.2          4/ 6
HUDSON CANYON    NOT AVBL
KINGS POINT      1400            73      CALM  /  2 1022.1
EASTERN LI SOUND 1400            52     200/  4/  6   N/A
ROBBINS REEF     1400            70      CALM  /  1 1021.9
$$


>>>>>>>>>>>>>>>>>>>>>>>>>>>> KEY <<<<<<<<<<<<<<<<<<<<<<<<<<<
>                                                          <
>     SKY/WX - SKY CONDITION/PRESENT WEATHER               <
>     TMP    - TEMPERATURE IN FAHRENHEIT                   <
>     DP     - DEWPOINT IN FAHRENHEIT                      <
>     RH     - RELATIVE HUMIDITY IN PERCENT                <
>     WIND   - DIRECTION AND SPEED IN MPH                  <
>     PRES   - MEAN SEA LEVEL PRESSURE IN INCHES OF HG     <
>     WCI    - WIND CHILL INDEX                            <
>     VSB    - VISIBILITY IN MILES                         <
>     HX     - HEAT INDEX                                  <
>     TC     - TEMPERATURE IN CELSIUS                      <
>     VRB    - VARIABLE WIND DIRECTION                     <
>                                                          <
>>>>>>>>>>>>>>>>>>>>>>>>>>>> KEY <<<<<<<<<<<<<<<<<<<<<<<<<<<




USA.gov is the U.S. government's official web portal to all federal, state and local government web resources and services.